Location: Newark
(41.6500°N, 71.4833°W)
Time: 08:41:53
(UTC+00:00)

Hubble Space Telescope - Visible Passes

Search period start: 12 December 2019 00:00
Search period end: 22 December 2019 00:00
Orbit: 536 x 540 km, 28.5° (Epoch: 11 December)

Date Brightness Start Highest point End Pass type
(mag) Time Alt. Az. Time Alt. Az. Time Alt. Az.
15 Dec 3.5 11:30:50 10° SSW 11:32:41 13° S 11:34:33 10° SSE visible
16 Dec 3.4 11:20:01 10° SSW 11:21:57 13° S 11:23:54 10° SSE visible
17 Dec 3.4 11:09:16 10° SSW 11:11:13 13° S 11:13:10 10° SSE visible
18 Dec 3.7 09:20:59 10° SSE 09:20:59 10° SSE 09:21:19 10° SSE visible
18 Dec 3.3 10:58:36 10° SSW 11:00:28 13° S 11:02:21 10° SSE visible
19 Dec 3.3 10:48:03 10° SSW 10:49:44 12° S 10:51:26 10° SSE visible
20 Dec 3.3 10:37:37 10° SSW 10:38:59 11° S 10:40:22 10° S visible
21 Dec 3.4 10:27:29 10° SSW 10:28:14 10° S 10:29:00 10° S visible
